Location: Champaign/Urbana Astronomical Society Observatory
(40.0333°N, 88.2833°W)
Time: 17:16:31
(UTC-06:00)

NOAA 15 - Visible Passes

Search period start: 11 November 2019 00:00
Search period end: 21 November 2019 00:00
Orbit: 798 x 813 km, 98.7° (Epoch: 11 November)

Date Brightness Start Highest point End Pass type
(mag) Time Alt. Az. Time Alt. Az. Time Alt. Az.
11 Nov 4.5 18:06:58 10° SSE 18:12:12 65° ENE 18:17:28 10° N visible
11 Nov 7.4 19:49:27 10° SW 19:52:25 15° W 19:55:23 10° WNW visible
12 Nov 5.0 17:42:23 10° SE 17:47:15 38° ENE 17:52:08 10° N visible
12 Nov 6.6 19:22:44 10° SSW 19:27:05 26° W 19:31:28 10° NW visible
13 Nov 7.7 05:59:26 10° ENE 06:02:16 15° E 06:05:05 10° SE visible
13 Nov 5.6 17:18:16 10° ESE 17:22:24 24° ENE 17:26:32 10° NNE visible
13 Nov 5.7 18:56:50 10° S 19:01:53 44° W 19:06:56 10° NNW visible
14 Nov 4.7 18:31:26 10° S 18:36:44 76° WSW 18:42:03 10° NNW visible
15 Nov 4.5 18:06:28 10° SSE 18:11:42 64° ENE 18:16:56 10° N visible
15 Nov 7.3 19:48:53 10° SW 19:51:53 15° W 19:54:54 10° NW visible
16 Nov 5.0 17:41:53 10° SE 17:46:45 38° ENE 17:51:36 10° N visible
16 Nov 6.6 19:22:11 10° SSW 19:26:34 26° W 19:30:58 10° NW visible
17 Nov 7.7 05:58:58 10° ENE 06:01:44 14° E 06:04:29 10° ESE visible
17 Nov 5.6 17:17:47 10° ESE 17:21:53 23° ENE 17:25:59 10° NNE visible
17 Nov 5.6 18:56:18 10° S 19:01:20 44° W 19:06:25 10° NNW visible
18 Nov 4.7 18:30:55 10° S 18:36:13 77° WSW 18:41:32 10° NNW visible
19 Nov 4.5 18:05:57 10° SSE 18:11:10 63° ENE 18:16:24 10° N visible
19 Nov 7.3 19:48:18 10° SW 19:51:21 15° W 19:54:25 10° NW visible
20 Nov 5.1 17:41:23 10° SE 17:46:13 37° ENE 17:51:03 10° N visible
20 Nov 6.6 19:21:38 10° SSW 19:26:02 26° W 19:30:28 10° NW visible
